Location: *
(55.7525°N, 37.8597°E)
Time: 05:25:16
(UTC+00:00)

Daily predictions for brighter satellites

Satellite Brightness Start Highest point End
(mag) Time Altitude Azimuth Time Altitude Azimuth Time Altitude Azimuth
Cosmos 2173 Rocket 4.0 00:01:03 10° NNW 00:07:17 82° W 00:13:34 10° S
CZ-4B R/B 1.2 00:05:20 14° SSE 00:08:03 90° NE 00:11:21 10° NNW
Cosmos 1076 Rocket 3.9 00:04:25 10° N 00:08:39 62° ENE 00:12:52 10° SSE
deb Chang Zheng 4 3.5 00:05:02 10° NNE 00:09:22 86° ESE 00:12:32 18° SSW
Meteor 1-11 4.2 00:03:56 10° NNW 00:09:34 70° W 00:15:06 10° S
AQUA 3.9 00:05:32 10° NNE 00:10:18 67° WNW 00:13:37 19° SSW
Cosmos 1624 Rocket 4.0 00:09:47 19° SSW 00:13:34 87° WNW 00:18:50 10° NNE
ARIANE 5 R/B 2.9 00:09:25 10° NNE 00:14:40 67° ESE 00:19:38 11° S
Cosmos 2237 Rocket 2.5 00:11:54 10° NW 00:17:16 44° WSW 00:22:37 10° S
IRS-1D 3.5 00:12:38 10° NNE 00:17:46 78° WNW 00:21:56 16° SSW
Cosmos 1980 4.1 00:12:37 10° NW 00:17:55 41° WSW 00:23:09 10° S
ATLAS 2AS CENTAUR R/B 3.1 00:11:43 10° NW 00:19:09 49° WSW 00:26:02 10° SSE
SL-16 R/B 2.2 00:17:29 10° NW 00:23:12 82° WSW 00:28:51 10° SSE
CZ-4C R/B 4.1 00:22:13 21° SW 00:23:40 27° W 00:26:46 10° NW
CZ-2C R/B 3.9 00:21:58 10° NNE 00:25:48 43° E 00:29:39 10° S
Cosmos 2333 Rocket 3.6 00:23:21 10° WNW 00:27:06 18° W 00:29:06 15° SW
CBERS-1 4.3 00:25:18 10° N 00:30:19 56° WNW 00:34:25 15° SW
IRS-P3 4.2 00:25:32 10° NNE 00:30:52 67° WNW 00:35:27 14° SSW
Cosmos 2100 Rocket 4.2 00:26:21 10° NNW 00:32:30 55° W 00:38:41 10° SSW
Cosmos 2151 4.3 00:28:29 10° N 00:32:33 42° ENE 00:36:34 10° SE
Cosmos 1802 Rocket 4.0 00:27:34 10° NNW 00:33:40 66° W 00:39:45 10° S
Cosmos 1371 Rocket 4.3 00:29:36 16° SW 00:33:42 59° WNW 00:38:57 10° NNE
CZ-4C R/B 3.3 00:28:45 10° W 00:34:21 47° NNW 00:41:03 10° ENE
Cosmos 2016 Rocket 4.0 00:29:04 10° NNW 00:35:18 74° W 00:41:24 10° S
USA 215 3.4 00:28:44 10° ENE 00:35:18 84° N 00:41:52 10° W
H-2A R/B 3.9 00:34:50 13° WSW 00:36:06 14° W 00:38:25 10° NW
Cosmos 1420 Rocket 4.2 00:32:00 12° SSW 00:36:54 71° ESE 00:42:11 10° NNE
USA 40 PKM 4.4 00:33:05 10° W 00:37:17 75° N 00:40:38 10° E
IDEFIX/ARIANE 42P 4.5 00:33:02 10° NNE 00:37:31 28° E 00:41:59 10° SSE
Cosmos 1689 Rocket 2.1 00:35:28 10° S 00:38:27 60° WSW 00:41:28 10° NNW
Resurs 1-4 Rocket 2.9 00:36:08 10° N 00:40:59 38° WNW 00:45:14 13° SW
ERBS 2.7 00:38:44 17° SW 00:41:05 51° SSE 00:44:23 10° ENE
Cosmos 2219 3.3 00:36:24 14° SSW 00:41:27 88° WNW 00:47:17 10° NE
Cosmos 1356 4.2 00:42:44 10° S 00:46:06 51° E 00:49:30 10° NNE
Cosmos 2233 Rocket 4.2 00:41:16 10° N 00:47:29 78° ENE 00:53:38 10° SSE
Cosmos 1452 Rocket 3.6 00:46:56 10° SSW 00:52:12 79° ESE 00:57:30 10° NNE
Cosmos 1908 3.5 00:49:35 13° SSW 00:52:52 49° WNW 00:56:37 10° N
In-Cosmos 22 Rocket 4.4 00:48:34 10° NNW 00:54:25 84° ENE 01:00:05 10° SSE
Cosmos 2123 Rocket 4.1 00:50:24 10° S 00:56:36 85° ESE 01:02:55 10° NNE
Cosmos 1812 Rocket 3.6 00:53:00 10° SSW 00:57:24 72° WNW 01:01:48 10° N
Cosmos 1242 Rocket 3.0 00:55:26 10° NNW 00:58:41 37° W 01:01:54 10° SSW
Cosmos 1461 4.3 00:55:55 10° S 00:59:27 29° ESE 01:02:56 10° ENE
CZ-2D R/B 3.6 00:56:30 10° NNE 01:00:57 75° WNW 01:05:18 10° SSW
CZ-2D R/B 3.4 01:01:57 10° N 01:06:36 29° NW 01:11:12 10° WSW
Cosmos 1725 Rocket 4.2 01:04:00 10° NNW 01:10:05 55° W 01:16:05 10° SSW
SL-16 R/B 4.3 01:08:53 10° WSW 01:11:49 14° W 01:14:46 10° NW
SeaSat 1 3.6 01:08:57 10° NNE 01:13:24 34° NW 01:17:50 10° WSW
Cosmos 1238 Rocket 3.3 01:11:13 10° N 01:14:09 46° ENE 01:17:01 10° SSE
RESURS DK-1 3.0 01:18:55 10° NNW 01:23:04 61° NE 01:27:11 10° SE
NOSS 3-4 (A) 4.5 01:18:18 10° WNW 01:24:20 32° WSW 01:30:50 10° S
NOSS 3-4 (C) 4.4 01:18:24 10° WNW 01:24:26 33° WSW 01:30:58 10° S
Cosmos 2227 Rocket 2.3 01:21:57 10° SW 01:27:36 73° NW 01:33:18 10° NNE
